DLH454 EDDM-KLAX

Flight info

Callsign DLH454
Flight time N/A
Altitude 38000
Route INPUD2S INPUD Y102 UPALA Z109 BAMAS L604 GASKA DCT MASEK DCT OTMEC DCT PAM DCT RAVLO Y70 OTBED DCT ABLUC DCT OZRAT DCT WETFI DCT REVNU DCT PIGET DCT SUNOT/M083F360 DCT 58N020W 58N030W 58N040W 57N050W DCT HOIST/N0480F360 DCT 5430N06000W/N0491F380 53N070W 51N080W 4830N09000W DCT KP12G DCT KP84A DCT KD63U/N0482F400 DCT KU51Q DCT PROMT Q88 HAKMN ANJLL4
Aircraft A388/J-SADE2E3GHIJ3J4J5LM1OP2RWXYZ/LB1D1

Departure

Time N/A
Airport Munich Airport (EDDM)

Arrival

Time 2026-05-06 09:08
Airport Los Angeles International Airport (KLAX)
Time Latitude Longitude Altitude Speed Heading
2026-05-06 08:16 37.29441 -112.40346 39863 ft 492 kts 219°
2026-05-06 08:17 37.24146 -112.45380 39857 ft 492 kts 219°
2026-05-06 08:17 37.18678 -112.50568 39858 ft 493 kts 219°
2026-05-06 08:18 37.13209 -112.55749 39852 ft 492 kts 219°
2026-05-06 08:18 37.07830 -112.61010 39892 ft 490 kts 223°
2026-05-06 08:19 37.03112 -112.67036 39924 ft 487 kts 232°
2026-05-06 08:19 36.99036 -112.73776 39964 ft 486 kts 235°
2026-05-06 08:20 36.95005 -112.80553 39986 ft 486 kts 235°
2026-05-06 08:20 36.90960 -112.87317 40021 ft 486 kts 235°
2026-05-06 08:21 36.86879 -112.94138 40043 ft 487 kts 235°
2026-05-06 08:21 36.82854 -113.00854 40021 ft 486 kts 235°
2026-05-06 08:22 36.78801 -113.07586 40029 ft 484 kts 235°
2026-05-06 08:22 36.74758 -113.14299 39965 ft 484 kts 235°
2026-05-06 08:23 36.70715 -113.20999 39927 ft 484 kts 235°
2026-05-06 08:23 36.66662 -113.27696 39890 ft 484 kts 235°
2026-05-06 08:24 36.62606 -113.34388 39889 ft 484 kts 235°
2026-05-06 08:24 36.58681 -113.41186 39887 ft 484 kts 237°
2026-05-06 08:25 36.54822 -113.48072 39878 ft 487 kts 237°
2026-05-06 08:25 36.50913 -113.54968 39893 ft 489 kts 237°
2026-05-06 08:26 36.46987 -113.61873 39903 ft 490 kts 236°
2026-05-06 08:26 36.43041 -113.68766 39916 ft 490 kts 237°
2026-05-06 08:27 36.39094 -113.75680 39895 ft 490 kts 237°
2026-05-06 08:27 36.35134 -113.82565 39886 ft 490 kts 237°
2026-05-06 08:28 36.31176 -113.89455 39880 ft 490 kts 237°
2026-05-06 08:28 36.27221 -113.96348 39878 ft 490 kts 236°
2026-05-06 08:29 36.23261 -114.03195 39856 ft 488 kts 237°
2026-05-06 08:29 36.19307 -114.10030 39825 ft 489 kts 237°
2026-05-06 08:30 36.15347 -114.16891 39824 ft 490 kts 237°
2026-05-06 08:30 36.11369 -114.23739 39831 ft 490 kts 237°
2026-05-06 08:31 36.07233 -114.30434 39844 ft 490 kts 231°
2026-05-06 08:31 36.02685 -114.36716 39838 ft 490 kts 230°
2026-05-06 08:32 35.98146 -114.42987 39820 ft 491 kts 230°
2026-05-06 08:32 35.93593 -114.49290 39855 ft 493 kts 230°
2026-05-06 08:33 35.89061 -114.55567 39877 ft 493 kts 230°
2026-05-06 08:33 35.84461 -114.61893 39871 ft 497 kts 230°
2026-05-06 08:34 35.77511 -114.71438 39961 ft 501 kts 230°
2026-05-06 08:35 35.72864 -114.77806 39987 ft 499 kts 230°
2026-05-06 08:35 35.68225 -114.84142 39990 ft 500 kts 230°
2026-05-06 08:36 35.63582 -114.90492 39992 ft 499 kts 230°
2026-05-06 08:36 35.58939 -114.96834 39988 ft 498 kts 230°
2026-05-06 08:37 35.54274 -115.03200 39985 ft 498 kts 230°
2026-05-06 08:37 35.49641 -115.09508 39980 ft 497 kts 229°
2026-05-06 08:38 35.44909 -115.15696 39996 ft 497 kts 229°
2026-05-06 08:38 35.40205 -115.21807 40020 ft 496 kts 228°
2026-05-06 08:39 35.35478 -115.27954 40039 ft 495 kts 229°
2026-05-06 08:39 35.30758 -115.34089 40015 ft 495 kts 228°
2026-05-06 08:40 35.26021 -115.40235 40022 ft 496 kts 228°
2026-05-06 08:40 35.21282 -115.46379 40020 ft 496 kts 229°
2026-05-06 08:41 35.16543 -115.52513 40024 ft 497 kts 228°
2026-05-06 08:41 35.11784 -115.58650 40046 ft 497 kts 228°
2026-05-06 08:42 35.07012 -115.64765 40053 ft 498 kts 228°
2026-05-06 08:42 35.02227 -115.70879 40038 ft 498 kts 228°
2026-05-06 08:43 34.97437 -115.76988 40033 ft 498 kts 228°
2026-05-06 08:43 34.92637 -115.83095 40033 ft 499 kts 228°
2026-05-06 08:44 34.87830 -115.89206 40024 ft 499 kts 228°
2026-05-06 08:44 34.83022 -115.95306 40010 ft 499 kts 228°
2026-05-06 08:45 34.78205 -116.01403 40016 ft 498 kts 227°
2026-05-06 08:45 34.75812 -116.04432 39718 ft 496 kts 228°
2026-05-06 08:45 34.73420 -116.07478 38940 ft 501 kts 228°
2026-05-06 08:45 34.70995 -116.10574 37711 ft 511 kts 227°
2026-05-06 08:46 34.68527 -116.13722 36675 ft 517 kts 227°
2026-05-06 08:46 34.66050 -116.16873 35986 ft 515 kts 227°
2026-05-06 08:46 34.63582 -116.20010 35260 ft 514 kts 226°
2026-05-06 08:46 34.61105 -116.23147 34554 ft 514 kts 226°
2026-05-06 08:47 34.58635 -116.26276 33941 ft 513 kts 226°
2026-05-06 08:47 34.56176 -116.29400 33249 ft 511 kts 226°
2026-05-06 08:47 34.53726 -116.32505 32603 ft 508 kts 226°
2026-05-06 08:47 34.51317 -116.35551 31986 ft 507 kts 226°
2026-05-06 08:48 34.48848 -116.38667 31319 ft 505 kts 226°
2026-05-06 08:48 34.46418 -116.41732 30692 ft 503 kts 226°
2026-05-06 08:48 34.43999 -116.44790 30024 ft 503 kts 227°
2026-05-06 08:48 34.41799 -116.48078 29152 ft 503 kts 236°
2026-05-06 08:49 34.39994 -116.51701 28184 ft 504 kts 245°
2026-05-06 08:49 34.38467 -116.55504 27530 ft 499 kts 246°
2026-05-06 08:49 34.36963 -116.59191 27000 ft 492 kts 245°
2026-05-06 08:49 34.35445 -116.62872 26429 ft 487 kts 245°
2026-05-06 08:50 34.33946 -116.66491 26200 ft 474 kts 245°
2026-05-06 08:50 34.32478 -116.70049 25954 ft 461 kts 246°
2026-05-06 08:50 34.31075 -116.73529 25361 ft 460 kts 246°
2026-05-06 08:50 34.29689 -116.76998 24862 ft 456 kts 246°
2026-05-06 08:51 34.28313 -116.80435 24372 ft 452 kts 246°
2026-05-06 08:51 34.26945 -116.83843 23879 ft 448 kts 246°
2026-05-06 08:51 34.25606 -116.87168 23374 ft 444 kts 246°
2026-05-06 08:51 34.24241 -116.90550 22825 ft 439 kts 246°
2026-05-06 08:52 34.22923 -116.93805 22337 ft 434 kts 246°
2026-05-06 08:52 34.21606 -116.97060 21845 ft 429 kts 247°
2026-05-06 08:52 34.20513 -117.00376 21237 ft 421 kts 255°
2026-05-06 08:52 34.19639 -117.03722 20628 ft 414 kts 255°
2026-05-06 08:53 34.18759 -117.07008 19970 ft 408 kts 255°
2026-05-06 08:53 34.17884 -117.10241 19352 ft 402 kts 255°
2026-05-06 08:53 34.17021 -117.13430 18732 ft 396 kts 255°
2026-05-06 08:53 34.16170 -117.16563 18110 ft 390 kts 255°
2026-05-06 08:54 34.15320 -117.19659 17318 ft 389 kts 254°
2026-05-06 08:54 34.14472 -117.22738 16706 ft 382 kts 254°
2026-05-06 08:54 34.13641 -117.25744 16352 ft 374 kts 254°
2026-05-06 08:54 34.12817 -117.28732 15836 ft 375 kts 254°
2026-05-06 08:55 34.11975 -117.31786 15323 ft 372 kts 254°
2026-05-06 08:55 34.11153 -117.34761 14817 ft 369 kts 253°
2026-05-06 08:55 34.10350 -117.37664 14329 ft 367 kts 253°
2026-05-06 08:55 34.09587 -117.40586 13817 ft 364 kts 255°
2026-05-06 08:56 34.08872 -117.43493 13324 ft 360 kts 255°
2026-05-06 08:56 34.08168 -117.46375 12831 ft 356 kts 255°
2026-05-06 08:56 34.07467 -117.49216 12460 ft 350 kts 255°
2026-05-06 08:56 34.06771 -117.51998 12224 ft 344 kts 255°
2026-05-06 08:57 34.06071 -117.54753 11805 ft 342 kts 255°
2026-05-06 08:57 34.05374 -117.57477 11379 ft 339 kts 254°
2026-05-06 08:57 34.04681 -117.60180 10958 ft 336 kts 254°
2026-05-06 08:57 34.03993 -117.62862 10546 ft 333 kts 254°
2026-05-06 08:58 34.03541 -117.64626 10275 ft 332 kts 254°
2026-05-06 08:58 34.02862 -117.67274 10063 ft 326 kts 254°
2026-05-06 08:58 34.02233 -117.69843 9987 ft 315 kts 259°
2026-05-06 08:58 34.01926 -117.72428 9701 ft 311 kts 266°
2026-05-06 08:59 34.01694 -117.75022 9204 ft 311 kts 265°
2026-05-06 08:59 34.01452 -117.77579 9010 ft 304 kts 265°
2026-05-06 08:59 34.01208 -117.80105 8752 ft 301 kts 265°
2026-05-06 08:59 34.00964 -117.82611 8344 ft 299 kts 264°
2026-05-06 09:00 34.00720 -117.85101 8049 ft 294 kts 264°
2026-05-06 09:00 34.00479 -117.87558 7551 ft 292 kts 264°
2026-05-06 09:00 34.00243 -117.89967 7139 ft 287 kts 264°
2026-05-06 09:00 34.00011 -117.92321 6985 ft 280 kts 264°
2026-05-06 09:01 33.99781 -117.94663 6620 ft 282 kts 264°
2026-05-06 09:01 33.99554 -117.96982 6179 ft 276 kts 264°
2026-05-06 09:01 33.99333 -117.99251 6004 ft 271 kts 264°
2026-05-06 09:01 33.99110 -118.01506 5784 ft 271 kts 263°
2026-05-06 09:02 33.98886 -118.03768 5466 ft 272 kts 263°
2026-05-06 09:02 33.98662 -118.05998 5124 ft 266 kts 263°
2026-05-06 09:02 33.98441 -118.08200 4861 ft 262 kts 263°
2026-05-06 09:02 33.98222 -118.10387 4399 ft 263 kts 263°
2026-05-06 09:03 33.98001 -118.12574 4077 ft 260 kts 263°
2026-05-06 09:03 33.97786 -118.14769 3960 ft 248 kts 263°
2026-05-06 09:03 33.97597 -118.16794 3874 ft 238 kts 264°
2026-05-06 09:03 33.97412 -118.18754 3651 ft 235 kts 263°
2026-05-06 09:04 33.97211 -118.20713 3329 ft 236 kts 263°
2026-05-06 09:04 33.97007 -118.22708 2998 ft 238 kts 263°
2026-05-06 09:04 33.96805 -118.24674 2699 ft 235 kts 263°
2026-05-06 09:04 33.96607 -118.26604 2323 ft 228 kts 262°
2026-05-06 09:05 33.96415 -118.28465 2061 ft 221 kts 262°
2026-05-06 09:05 33.96235 -118.30227 1792 ft 196 kts 262°
2026-05-06 09:05 33.96085 -118.31688 1543 ft 161 kts 262°
2026-05-06 09:05 33.95956 -118.32950 1324 ft 146 kts 262°
2026-05-06 09:06 33.95834 -118.34137 1125 ft 141 kts 262°
2026-05-06 09:06 33.95713 -118.35306 945 ft 140 kts 262°
2026-05-06 09:06 33.95594 -118.36463 751 ft 138 kts 262°
2026-05-06 09:06 33.95477 -118.37608 570 ft 138 kts 263°
2026-05-06 09:07 33.95363 -118.38748 380 ft 137 kts 263°
2026-05-06 09:07 33.95245 -118.39884 193 ft 137 kts 263°
2026-05-06 09:07 33.95130 -118.40989 98 ft 122 kts 263°
2026-05-06 09:07 33.95042 -118.41830 99 ft 84 kts 263°
2026-05-06 09:08 33.94996 -118.42276 99 ft 37 kts 263°
2026-05-06 09:08 33.94941 -118.42528 98 ft 29 kts 243°
2026-05-06 09:08 33.94847 -118.42682 101 ft 17 kts 224°
2026-05-06 09:08 33.94748 -118.42763 107 ft 16 kts 204°
2026-05-06 09:09 33.94670 -118.42781 103 ft 8 kts 175°
2026-05-06 09:09 33.94600 -118.42770 100 ft 11 kts 168°
2026-05-06 09:09 33.94561 -118.42703 101 ft 12 kts 89°
2026-05-06 09:09 33.94571 -118.42580 98 ft 17 kts 83°
2026-05-06 09:10 33.94587 -118.42427 101 ft 20 kts 82°
2026-05-06 09:10 33.94605 -118.42253 98 ft 22 kts 82°
2026-05-06 09:10 33.94624 -118.42056 98 ft 22 kts 83°
2026-05-06 09:10 33.94629 -118.41905 101 ft 16 kts 85°
2026-05-06 09:11 33.94634 -118.41849 98 ft 4 kts 84°
2026-05-06 09:11 33.94640 -118.41784 98 ft 11 kts 83°
2026-05-06 09:11 33.94651 -118.41664 98 ft 17 kts 83°
2026-05-06 09:11 33.94667 -118.41515 99 ft 17 kts 83°
2026-05-06 09:12 33.94680 -118.41378 98 ft 13 kts 82°
2026-05-06 09:12 33.94673 -118.41298 102 ft 10 kts 134°
2026-05-06 09:12 33.94599 -118.41268 100 ft 14 kts 174°
2026-05-06 09:12 33.94488 -118.41254 98 ft 18 kts 173°
2026-05-06 09:13 33.94354 -118.41234 98 ft 20 kts 172°
2026-05-06 09:13 33.94218 -118.41211 99 ft 10 kts 172°
2026-05-06 09:13 33.94197 -118.41207 100 ft 3 kts 168°
2026-05-06 09:13 33.94173 -118.41186 98 ft 6 kts 118°
2026-05-06 09:14 33.94171 -118.41146 101 ft 5 kts 79°
2026-05-06 09:14 33.94175 -118.41110 98 ft 2 kts 82°
2026-05-06 09:14 33.94176 -118.41102 98 ft 0 kts 82°